Change the Weather History Date:

Tuesday, April 9, 2013

  Actual Average Record
Temperature  
Mean Temperature 44 °F -  
Max Temperature 54 °F 51 °F 71 °F (1988)
Min Temperature 33 °F 35 °F 19 °F (1953)
Degree Days  
Heating Degree Days 22    
Moisture  
Dew Point 16 °F    
Average Humidity 35    
Maximum Humidity 54    
Minimum Humidity 16    
Precipitation  
Precipitation 0.00 in - - ()
Sea Level Pressure  
Sea Level Pressure 30.05 in    
Wind  
Wind Speed 10 mph (NE)    
Max Wind Speed 16 mph    
Max Gust Speed 29 mph    
Visibility 10 miles    
Events      
Averages and records for this station are not official NWS values.
T = Trace of Precipitation, MM = Missing Value Source: NWS Daily Summary

Daily Weather History Graph

Daily Weather History Graph

Search for Another Location

Airport or City:

Trip Planner

Search our weather history database for the weather conditions in past years. The results will help you decide how hot, cold, wet, or windy it might be!

Date:

Astronomy

Apr. 09, 2013 Rise Set
Actual Time 6:34 AM PDT 7:34 PM PDT
Civil Twilight 6:06 AM PDT 8:02 PM PDT
Nautical Twilight 5:34 AM PDT 8:34 PM PDT
Astronomical Twilight 5:00 AM PDT 9:08 PM PDT
Moon 5:59 AM PDT (4/9) 7:15 PM PDT (4/9)
Length of Visible Light 13h 55m
Length of Day
13h 00m
Waning Crescent, 0% of the Moon is Illuminated
Apr 9
Waning Crescent
Apr 10
New
Apr 18
First Quarter
Apr 25
Full
May 2
Last Quarter

Hourly Weather History & Observations

Time (PDT) Temp. Windchill Dew Point Humidity Pressure Visibility Wind Dir Wind Speed Gust Speed Precip Events Conditions
12:52 AM 36.0 °F 27.5 °F 19.0 °F 50% 30.00 in 10.0 mi NE 12.7 mph 25.3 mph N/A   Clear
1:52 AM 35.1 °F 27.9 °F 17.1 °F 48% 29.99 in 10.0 mi NE 9.2 mph 23.0 mph N/A   Clear
2:52 AM 35.1 °F 27.9 °F 18.0 °F 50% 29.96 in 10.0 mi NNE 9.2 mph 26.5 mph N/A   Clear
3:52 AM 34.0 °F 28.0 °F 18.0 °F 52% 29.97 in 10.0 mi NE 6.9 mph 17.3 mph N/A   Clear
4:52 AM 34.0 °F 27.2 °F 17.1 °F 50% 29.97 in 10.0 mi ENE 8.1 mph 17.3 mph N/A   Clear
5:52 AM 33.1 °F 28.7 °F 18.0 °F 54% 30.00 in 10.0 mi Variable 4.6 mph - N/A   Clear
6:52 AM 33.1 °F 24.9 °F 18.0 °F 54% 30.01 in 10.0 mi ENE 10.4 mph 23.0 mph N/A   Clear
7:52 AM 35.1 °F 26.9 °F 17.1 °F 48% 30.03 in 10.0 mi ENE 11.5 mph 25.3 mph N/A   Clear
8:52 AM 39.0 °F 32.8 °F 16.0 °F 39% 30.01 in 10.0 mi NE 9.2 mph 19.6 mph N/A   Clear
9:52 AM 42.1 °F 35.2 °F 14.0 °F 32% 30.01 in 10.0 mi NNE 12.7 mph 28.8 mph N/A   Clear
10:52 AM 45.0 °F 37.9 °F 14.0 °F 29% 30.04 in 10.0 mi ENE 16.1 mph 24.2 mph N/A   Clear
11:52 AM 48.0 °F - 15.1 °F 27% 30.04 in 10.0 mi NNE 9.2 mph 24.2 mph N/A   Clear
12:52 PM 50.0 °F - 16.0 °F 26% 30.05 in 10.0 mi North 10.4 mph 21.9 mph N/A   Clear
1:52 PM 52.0 °F - 12.9 °F 21% 30.05 in 10.0 mi NE 8.1 mph 21.9 mph N/A   Clear
2:52 PM 52.0 °F - 6.1 °F 16% 30.06 in 10.0 mi NE 13.8 mph 27.6 mph N/A   Clear
3:52 PM 53.1 °F - 8.1 °F 16% 30.07 in 10.0 mi ENE 8.1 mph 24.2 mph N/A   Clear
4:52 PM 54.0 °F - 14.0 °F 21% 30.08 in 10.0 mi NNE 8.1 mph 18.4 mph N/A   Clear
5:52 PM 53.1 °F - 15.1 °F 22% 30.09 in 10.0 mi North 8.1 mph 16.1 mph N/A   Clear
6:52 PM 51.1 °F - 16.0 °F 25% 30.12 in 10.0 mi NNE 11.5 mph 18.4 mph N/A   Clear
7:52 PM 48.0 °F - 17.1 °F 29% 30.13 in 10.0 mi NNE 5.8 mph - N/A   Clear
8:52 PM 48.0 °F - 17.1 °F 29% 30.13 in 10.0 mi Variable 6.9 mph 23.0 mph N/A   Clear
9:52 PM 46.0 °F 41.4 °F 18.0 °F 33% 30.14 in 10.0 mi NE 9.2 mph - N/A   Clear
10:52 PM 46.9 °F - 18.0 °F 32% 30.11 in 10.0 mi NNE 11.5 mph 23.0 mph N/A   Clear
11:52 PM 48.0 °F - 19.9 °F 33% 30.09 in 10.0 mi NE 16.1 mph 27.6 mph N/A   Clear